This is the latest recevied weather packets stored in our database for station/object KK4XZ. If no packets are shown the sender has not sent any weather packets the latest 10 day(s).
| Time | Temp. | Humidity | Pressure | Rain* | Wind** | Luminosity | Snow |
|---|---|---|---|---|---|---|---|
| 1777679722 | 16.67° C | 76% | 1011.9 hPa | 0 mm | - | - | - |
| 1777679117 | 17.22° C | 75% | 1011.8 hPa | 0 mm | - | - | - |
| 1777678532 | 17.22° C | 74% | 1011.8 hPa | 0 mm | - | - | - |
| 1777677926 | 17.22° C | 74% | 1011.9 hPa | 0 mm | - | - | - |
| 1777677321 | 17.22° C | 74% | 1011.9 hPa | 0 mm | - | - | - |
| 1777676736 | 17.78° C | 74% | 1012.1 hPa | 0 mm | - | - | - |
| 1777676131 | 17.78° C | 73% | 1012.1 hPa | 0 mm | - | - | - |
| 1777675526 | 17.78° C | 72% | 1012.2 hPa | 0 mm | - | - | - |
| 1777674921 | 17.78° C | 72% | 1012.2 hPa | 0 mm | - | - | - |
| 1777674341 | 18.33° C | 72% | 1012.1 hPa | 0 mm | - | - | - |
| 1777673731 | 18.33° C | 71% | 1012.3 hPa | 0 mm | - | - | - |
| 1777673127 | 18.89° C | 71% | 1012.2 hPa | 0 mm | - | - | - |
| 1777672522 | 18.89° C | 70% | 1012.1 hPa | 0 mm | - | - | - |
| 1777671916 | 18.89° C | 71% | 1012.1 hPa | 0 mm | - | - | - |
| 1777671332 | 19.44° C | 70% | 1012.2 hPa | 0 mm | - | - | - |
| 1777670727 | 19.44° C | 69% | 1012 hPa | 0 mm | - | - | - |
| 1777670122 | 18.89° C | 70% | 1012.5 hPa | 0 mm | - | - | - |
| 1777669517 | 18.89° C | 70% | 1012.4 hPa | 0 mm | - | - | - |
| 1777668933 | 18.89° C | 69% | 1012.2 hPa | 0 mm | - | - | - |
| 1777668328 | 19.44° C | 68% | 1012.3 hPa | 0 mm | - | - | - |
| 1777667723 | 19.44° C | 69% | 1012.5 hPa | 0 mm | - | - | - |
| 1777667118 | 18.89° C | 69% | 1012.6 hPa | 0 mm | - | - | - |
| 1777666534 | 18.89° C | 68% | 1012.6 hPa | 0 mm | - | - | - |
| 1777665929 | 18.89° C | 69% | 1012.5 hPa | 0 mm | - | - | - |
| 1777665323 | 18.33° C | 70% | 1012.5 hPa | 0 mm | - | - | - |
* Rain latest hour (hover to see other rain measurements)
** Current wind speed in m/s (hover to see current wind gust speed)